Content
SEND FEEDBACK

Daily
Averages
Monthly
Summary
United States of America

FALKVILLE, ALABAMA


Home > North America > United States > Alabama
Elevation: 628 feet     Latitude: 34 22N     Longitude: 086 53W

WEATHER
 
SELECT A DAY
Number of Records: 236,609;   Date Range: 10/9/03 - 6/27/13
 
SHARE

PRINT THIS DATA

[ ← Previous Day ]
WEATHER ALMANAC - JANUARY 23, 2013
[ Next Day → ]
[ °C ]   °F
Weather ElementAverageHighLow
Temperature42.8 °F54.5 °F (3:15 pm)32 °F (12:35 am)
Dewpoint28.7 °F38.3 °F (11:55 pm)19.6 °F (2:55 am)
Humidity58.8 %79 % (10:15 pm)42 % (9:55 am)
Barometer30.29 in30.39 in (9:55 am)30.22 in (6:55 pm)
Wind Speed3.4 mph10.4 mph (3:35 pm)
Wind Gust17.3 mph (6:15 pm)
Weather ElementAverage
Visibility10 mi
Wind DirectionESE (111.1 °)

Weather ElementTotal
Precipitation---
Heating Degree Days21.8 (Base 65)
Averaged from 71 records on January 23, 2013
WEATHER CONDITIONS BREAKOUT
WIND DIRECTION BREAKOUT
WEATHER BY HOUR - JANUARY 23, 2013
[ °C ]   °F
Local TimeTemperatureDewpointHumidityBarometerVisibilityWind DirectionWind SpeedGust SpeedPrecipitationEventsConditions
12:35 AM32.0 °F24.1 °F73 %30.33 in10.0 miCalmOvercast
12:55 AM32.4 °F25.7 °F76 %30.33 in10.0 miCalmOvercast
1:15 AM32.5 °F26.2 °F78 %30.33 in10.0 miCalmOvercast
1:35 AM32.7 °F26.4 °F78 %30.34 in10.0 miCalmOvercast
1:55 AM33.3 °F24.6 °F71 %30.34 in10.0 miCalmOvercast
2:15 AM33.8 °F20.5 °F58 %30.34 in10.0 miCalmOvercast
2:35 AM33.8 °F19.8 °F56 %30.34 in10.0 miCalmOvercast
2:55 AM33.8 °F19.6 °F56 %30.34 in10.0 miCalmOvercast
3:15 AM33.8 °F19.9 °F57 %30.34 in10.0 miCalmOvercast
3:35 AM33.8 °F20.5 °F58 %30.33 in10.0 miCalmOvercast
3:55 AM33.6 °F21.9 °F62 %30.33 in10.0 miCalmOvercast
4:15 AM33.3 °F23.2 °F67 %30.33 in10.0 miCalmOvercast
4:35 AM33.4 °F23.0 °F66 %30.33 in10.0 miCalmOvercast
4:55 AM33.3 °F24.8 °F71 %30.34 in10.0 miCalmOvercast
5:15 AM32.9 °F25.9 °F75 %30.35 in10.0 miCalmOvercast
5:35 AM33.4 °F25.7 °F73 %30.35 in10.0 miCalmOvercast
5:55 AM33.8 °F23.9 °F67 %30.35 in10.0 miCalmOvercast
6:15 AM33.6 °F23.4 °F66 %30.36 in10.0 miCalmOvercast
6:35 AM34.0 °F22.5 °F63 %30.36 in10.0 miCalmOvercast
6:55 AM33.8 °F22.3 °F63 %30.36 in10.0 miCalmOvercast
7:15 AM33.8 °F22.1 °F62 %30.36 in10.0 miSouth (180°)3.5 mphOvercast
7:35 AM33.6 °F22.8 °F65 %30.36 in10.0 miCalmMostly Cloudy
7:55 AM33.6 °F22.6 °F64 %30.36 in10.0 miCalmClear
8:15 AM35.4 °F21.7 °F58 %30.36 in10.0 miSouth (180°)3.5 mphClear
8:35 AM37.0 °F20.8 °F52 %30.37 in10.0 miSSE (160°)4.6 mphClear
8:55 AM38.7 °F19.9 °F47 %30.36 in10.0 miSouth (170°)6.9 mphClear
9:15 AM39.9 °F20.1 °F45 %30.38 in10.0 miSouth (180°)3.5 mphClear
9:35 AM41.7 °F21.2 °F44 %30.38 in10.0 miSSW (200°)6.9 mphClear
9:55 AM43.5 °F21.9 °F42 %30.39 in10.0 miSSW (200°)5.8 mphClear
10:15 AM45.0 °F23.2 °F42 %30.38 in10.0 miSW (220°)5.8 mphClear
10:35 AM46.2 °F24.8 °F43 %30.36 in10.0 miSSW (200°)5.8 mphClear
10:55 AM47.1 °F26.1 °F44 %30.36 in10.0 miWSW (240°)3.5 mphClear
11:15 AM48.2 °F28.9 °F47 %30.35 in10.0 miSW (220°)6.9 mphClear
11:35 AM49.1 °F29.7 °F47 %30.33 in10.0 miSSW (210°)6.9 mphClear
11:55 AM50.0 °F30.0 °F46 %30.31 in10.0 miSW (220°)4.6 mphClear
12:15 PM50.9 °F31.5 °F47 %30.30 in10.0 miSW (230°)3.5 mphClear
12:35 PM51.3 °F30.9 °F46 %30.28 in10.0 miSW (230°)6.9 mphClear
12:55 PM52.9 °F31.6 °F44 %30.27 in10.0 miSW (220°)6.9 mphClear
1:15 PM53.4 °F31.6 °F44 %30.26 in10.0 miSouth (190°)6.9 mphClear
1:35 PM53.6 °F31.3 °F43 %30.26 in10.0 miSW (220°)8.1 mphScattered Clouds
1:55 PM53.8 °F31.5 °F43 %30.25 in10.0 miSSW (210°)5.8 mphScattered Clouds
2:15 PM53.4 °F31.8 °F44 %30.25 in10.0 miSW (230°)5.8 mphMostly Cloudy
2:35 PM53.4 °F32.2 °F44 %30.24 in10.0 miSSW (200°)6.9 mphOvercast
2:55 PM54.1 °F32.7 °F44 %30.24 in10.0 miSW (220°)8.1 mphMostly Cloudy
3:15 PM54.5 °F32.9 °F44 %30.24 in10.0 miSSW (210°)9.2 mphMostly Cloudy
3:35 PM52.9 °F32.9 °F47 %30.24 in10.0 miSSW (210°)10.4 mphMostly Cloudy
3:55 PM51.8 °F32.7 °F48 %30.24 in10.0 miSSW (210°)10.4 mphOvercast
4:15 PM51.1 °F32.5 °F49 %30.23 in10.0 miSSW (210°)3.5 mphOvercast
4:35 PM50.5 °F33.1 °F51 %30.23 in10.0 miSW (220°)5.8 mphOvercast
4:55 PM50.2 °F33.4 °F53 %30.23 in10.0 miSSW (210°)6.9 mphMostly Cloudy
5:15 PM49.8 °F33.8 °F54 %30.23 in10.0 miSSW (200°)6.9 mphOvercast
5:35 PM49.5 °F34.2 °F56 %30.23 in10.0 miSSW (200°)6.9 mphOvercast
5:55 PM49.1 °F34.3 °F57 %30.23 in10.0 miSSW (200°)10.4 mphOvercast
6:15 PM48.9 °F34.5 °F58 %30.23 in10.0 miSSW (200°)9.2 mph17.3 mphOvercast
6:35 PM48.6 °F34.3 °F58 %30.23 in10.0 miSSW (200°)10.4 mph16.1 mphOvercast
6:55 PM48.2 °F34.2 °F58 %30.22 in10.0 miSSW (210°)5.8 mphOvercast
7:15 PM48.0 °F34.3 °F59 %30.23 in10.0 miSW (220°)4.6 mphOvercast
7:35 PM47.5 °F34.3 °F60 %30.23 in10.0 miSouth (190°)4.6 mphScattered Clouds
7:55 PM45.5 °F34.0 °F64 %30.22 in10.0 miCalmClear
8:15 PM44.1 °F34.0 °F68 %30.23 in10.0 miCalmScattered Clouds
8:35 PM44.1 °F34.2 °F68 %30.22 in10.0 miCalmScattered Clouds
8:55 PM42.8 °F34.2 °F72 %30.22 in10.0 miCalmMostly Cloudy
9:15 PM42.3 °F34.2 °F73 %30.23 in10.0 miCalmMostly Cloudy
9:35 PM41.9 °F34.5 °F75 %30.23 in10.0 miCalmMostly Cloudy
9:55 PM41.5 °F34.9 °F77 %30.22 in10.0 miCalmScattered Clouds
10:15 PM41.0 °F35.1 °F79 %30.22 in10.0 miCalmScattered Clouds
10:35 PM41.2 °F35.2 °F79 %30.23 in10.0 miCalmMostly Cloudy
10:55 PM44.1 °F36.5 °F75 %30.23 in10.0 miCalmOvercast
11:15 PM46.2 °F37.6 °F72 %30.23 in10.0 miCalmOvercast
11:35 PM47.1 °F37.9 °F70 %30.22 in10.0 miWest (260°)3.5 mphOvercast
11:55 PM47.5 °F38.3 °F70 %30.22 in10.0 miSSW (210°)5.8 mphOvercast
Hourly data recorded from K3A1, located miles away from Falkville, Alabama







STORIES FROM OUR PARTNERS